GW5910 Weather Reports


time (UTC)temp
C
wind
direction
speed
KPH
gust
KPH
rain 1hr
cm
rain 24hr
cm
rain mn
cm
humidity
%
barometer
mb
20260509064856 12 0 0.0 0.0 0.10 0.00 0.18 99 1010.0
20260509064358 12 236 0.0 0.0 0.08 0.00 0.15 99 1010.0
20260509063856 12 0 0.0 0.0 0.10 0.00 0.15 99 1010.0
20260509063357 12 0 0.0 0.0 0.08 0.00 0.15 99 1010.0
20260509062857 12 296 0.0 3.2 0.05 0.00 0.13 99 1010.0
20260509062356 12 326 0.0 1.6 0.08 0.00 0.13 99 1010.0
20260509061856 12 57 1.6 3.2 0.00 0.00 0.13 99 1010.0
20260509061356 12 0 0.0 0.0 0.05 0.00 0.13 99 1010.0
20260509060857 12 0 0.0 0.0 0.05 0.00 0.10 99 1010.0
20260509060356 12 97 0.0 1.6 0.10 0.00 0.10 99 1010.0
20260509055856 12 132 0.0 1.6 0.13 0.00 0.10 99 1010.0
20260509055357 12 352 0.0 0.0 0.05 0.00 0.08 99 1010.0
20260509054856 12 0 0.0 0.0 0.05 0.00 0.05 99 1010.0
20260509054356 12 0 0.0 0.0 0.05 0.00 0.05 99 1010.0
20260509053857 12 0 0.0 0.0 0.05 0.00 0.05 99 1010.0
20260509053357 12 0 0.0 0.0 0.00 0.00 0.05 99 1010.0
20260509052856 12 0 0.0 0.0 0.00 0.00 0.05 99 1010.0
20260509052356 12 0 0.0 0.0 0.00 0.00 0.05 99 1010.0
20260509051856 12 112 0.0 0.0 0.00 0.00 0.03 99 1010.0
20260509051356 12 76 0.0 0.0 0.00 0.00 0.03 99 1010.0
20260509050856 12 46 1.6 3.2 0.00 0.00 0.03 99 1010.0
20260509050357 12 117 0.0 0.0 0.00 0.00 0.03 99 1010.0
20260509045856 12 0 0.0 0.0 0.03 0.00 0.03 99 1010.0
20260509045356 12 0 0.0 0.0 0.00 0.00 0.03 100 1010.0
20260509044856 12 68 0.0 1.6 0.00 0.00 0.00 100 1010.0
20260509044357 12 75 0.0 1.6 0.00 0.00 0.00 100 1010.0
20260509043856 12 0 0.0 0.0 0.05 0.00 0.00 99 1010.0
20260509043357 12 73 1.6 3.2 0.03 0.00 0.00 99 1010.0
20260509042856 12 79 0.0 0.0 0.03 0.00 0.00 99 1010.0
20260509042356 12 0 0.0 0.0 0.03 0.00 0.00 98 1010.0
20260509041856 12 40 0.0 1.6 0.00 0.00 0.00 98 1010.0
20260509041357 12 111 0.0 0.0 0.00 0.00 0.00 98 1010.0
20260509040857 12 97 0.0 1.6 0.00 0.00 0.00 97 1010.0
20260509040356 12 120 0.0 0.0 0.00 0.00 0.00 97 1010.0
20260509035856 12 0 0.0 0.0 0.00 0.00 0.05 96 1010.0
20260509035356 12 76 1.6 3.2 0.00 0.00 0.05 96 1010.0
20260509034856 12 0 0.0 0.0 0.03 0.00 0.05 95 1010.0
20260509034356 13 105 0.0 1.6 0.05 0.00 0.05 95 1010.0
20260509033857 13 0 0.0 0.0 0.00 0.00 0.05 95 1010.0
20260509033357 13 8 0.0 1.6 0.00 0.00 0.05 95 1010.0
20260509032856 13 0 0.0 0.0 0.00 0.00 0.05 94 1010.0
20260509032356 13 0 0.0 0.0 0.00 0.00 0.05 93 1010.0
20260509031856 13 71 0.0 1.6 0.00 0.00 0.03 93 1010.0
20260509031356 13 0 0.0 0.0 0.03 0.00 0.03 92 1011.0
20260509030856 13 0 0.0 0.0 0.00 0.00 0.03 91 1011.0
20260509030357 13 0 0.0 0.0 0.00 0.00 0.03 91 1011.0
20260509025857 13 258 1.6 4.8 0.00 0.00 0.03 91 1011.0
20260509025356 13 317 0.0 1.6 0.00 0.00 0.03 90 1011.0
20260509024856 13 265 0.0 1.6 0.00 0.00 0.03 90 1011.0
20260509024356 13 282 1.6 3.2 0.00 0.00 0.03 89 1011.0
20260509023857 13 237 0.0 1.6 0.00 0.00 0.03 89 1011.0
20260509023356 13 322 0.0 3.2 0.00 0.00 0.03 88 1011.0
20260509022856 13 240 3.2 3.2 0.00 0.00 0.03 87 1011.0
20260509022356 13 269 1.6 3.2 0.00 0.00 0.03 87 1011.0
20260509021856 13 232 0.0 1.6 0.00 0.00 0.03 86 1011.0
20260509021356 13 289 1.6 3.2 0.00 0.00 0.03 86 1011.0
20260509020857 14 272 3.2 6.4 0.00 0.00 0.03 85 1011.0
20260509020356 14 32 1.6 4.8 0.00 0.00 0.03 85 1011.0
20260509015856 14 281 1.6 3.2 0.00 0.00 0.03 84 1011.0
20260509015357 14 265 0.0 1.6 0.00 0.00 0.03 84 1011.0
20260509014856 15 354 0.0 3.2 0.00 0.00 0.03 82 1010.0
20260509014356 15 249 0.0 1.6 0.00 0.00 0.03 81 1010.0
20260509013857 15 300 1.6 3.2 0.03 0.00 0.03 81 1010.0
20260509013356 15 327 0.0 1.6 0.00 0.00 0.03 79 1010.0
20260509012857 15 113 3.2 6.4 0.00 0.00 0.03 78 1010.0
20260509012356 15 31 0.0 1.6 0.00 0.00 0.03 77 1010.0
20260509011857 15 161 0.0 1.6 0.00 0.00 0.03 76 1010.0
20260509011357 15 42 0.0 0.0 0.00 0.00 0.03 76 1010.0
20260509010856 15 5 0.0 3.2 0.00 0.00 0.03 74 1010.0
20260509010358 15 245 1.6 3.2 0.00 0.00 0.03 73 1010.0
20260509005856 16 142 0.0 1.6 0.00 0.00 0.03 74 1010.0
20260509005356 16 135 1.6 3.2 0.00 0.00 0.00 73 1010.0
20260509004856 16 80 0.0 3.2 0.00 0.00 0.00 71 1010.0
20260509004356 16 282 0.0 1.6 0.00 0.00 0.00 69 1010.0
20260509003857 16 0 0.0 0.0 0.00 0.00 0.00 68 1010.0
20260509003356 16 0 0.0 0.0 0.00 0.00 0.00 67 1010.0
20260509002856 16 251 0.0 1.6 0.00 0.00 0.00 65 1010.0
20260509002356 16 295 0.0 1.6 0.00 0.00 0.00 64 1010.0
20260509001857 16 193 0.0 0.0 0.00 0.00 0.00 63 1010.0
20260509001356 16 0 0.0 0.0 0.00 0.00 0.00 63 1010.0
20260509000857 17 0 0.0 0.0 0.00 0.00 0.00 62 1010.0
20260509000356 17 0 0.0 0.0 0.00 0.00 0.00 63 1010.0
20260508235856 17 0 0.0 0.0 0.00 0.00 0.00 64 1010.0
20260508235356 17 0 0.0 0.0 0.00 0.00 0.00 64 1010.0
20260508234856 17 0 0.0 0.0 0.00 0.00 0.00 63 1010.0
20260508234356 17 337 0.0 1.6 0.00 0.00 0.00 60 1010.0
20260508233857 17 280 0.0 0.0 0.00 0.00 0.00 59 1010.0
20260508233356 17 138 0.0 1.6 0.00 0.00 0.00 59 1010.0
20260508232856 17 0 0.0 0.0 0.00 0.00 0.00 58 1010.0
20260508232356 17 0 0.0 0.0 0.00 0.00 0.00 59 1010.0
20260508231857 18 115 0.0 1.6 0.00 0.00 0.00 60 1010.0
20260508231356 18 108 0.0 0.0 0.00 0.00 0.00 61 1010.0
20260508230857 18 106 0.0 0.0 0.00 0.00 0.00 59 1010.0
20260508230356 18 166 0.0 0.0 0.00 0.00 0.00 59 1010.0
20260508225857 18 0 0.0 0.0 0.00 0.00 0.00 61 1010.0
20260508225356 18 102 0.0 1.6 0.00 0.00 0.00 61 1010.0
20260508224857 18 113 0.0 1.6 0.00 0.00 0.00 61 1010.0
20260508224356 18 118 0.0 0.0 0.00 0.00 0.00 58 1010.0
20260508223857 18 130 0.0 3.2 0.00 0.00 0.00 60 1010.0
20260508223356 18 137 0.0 1.6 0.00 0.00 0.00 58 1010.0
20260508222857 18 132 1.6 3.2 0.00 0.00 0.00 57 1009.0
20260508222356 19 0 0.0 0.0 0.00 0.00 0.00 56 1010.0
20260508221856 19 187 0.0 3.2 0.00 0.00 0.00 54 1009.0
20260508221356 19 187 0.0 1.6 0.00 0.00 0.00 53 1009.0
20260508220856 19 0 0.0 0.0 0.00 0.00 0.00 52 1009.0
20260508220357 19 148 0.0 0.0 0.00 0.00 0.00 54 1009.0
20260508215856 19 151 1.6 3.2 0.00 0.00 0.00 53 1009.0
20260508215357 20 155 1.6 1.6 0.00 0.00 0.00 52 1009.0
20260508214856 20 171 0.0 3.2 0.00 0.00 0.00 50 1009.0
20260508214356 20 199 0.0 3.2 0.00 0.00 0.00 52 1009.0
20260508213856 20 192 1.6 3.2 0.00 0.00 0.00 48 1009.0
20260508213356 20 218 0.0 1.6 0.00 0.00 0.00 49 1009.0
20260508212856 20 139 1.6 4.8 0.00 0.00 0.00 50 1009.0
20260508212357 20 148 0.0 3.2 0.00 0.00 0.00 50 1009.0
20260508211857 20 207 0.0 3.2 0.00 0.00 0.00 50 1010.0
20260508211357 20 184 3.2 6.4 0.00 0.00 0.00 48 1010.0
20260508210856 20 177 1.6 4.8 0.00 0.00 0.00 48 1010.0
20260508210356 20 145 0.0 1.6 0.00 0.00 0.00 49 1010.0
20260508205857 20 178 0.0 4.8 0.00 0.00 0.00 52 1010.0
20260508205356 20 173 0.0 3.2 0.00 0.00 0.00 49 1010.0
20260508204856 20 161 1.6 3.2 0.00 0.00 0.00 47 1010.0
20260508204356 20 138 1.6 4.8 0.00 0.00 0.00 47 1010.0
20260508203856 20 0 0.0 0.0 0.00 0.00 0.00 48 1010.0
20260508203357 20 267 0.0 1.6 0.00 0.00 0.00 48 1010.0
20260508202856 20 165 1.6 4.8 0.00 0.00 0.00 48 1010.0
20260508202356 20 185 1.6 4.8 0.00 0.00 0.00 48 1010.0
20260508201856 20 176 1.6 4.8 0.00 0.00 0.00 47 1011.0
20260508201357 20 163 1.6 4.8 0.00 0.00 0.00 48 1011.0
20260508200856 20 289 0.0 1.6 0.00 0.00 0.00 46 1011.0
20260508200357 21 134 0.0 3.2 0.00 0.00 0.00 49 1011.0
20260508195857 20 230 1.6 4.8 0.00 0.00 0.00 48 1011.0
20260508195356 20 144 1.6 4.8 0.00 0.00 0.00 48 1011.0
20260508194856 20 213 1.6 3.2 0.00 0.00 0.00 49 1011.0
20260508194357 20 215 0.0 4.8 0.00 0.00 0.00 45 1011.0
20260508193857 20 142 0.0 1.6 0.00 0.00 0.00 47 1011.0
20260508193356 20 194 3.2 6.4 0.00 0.00 0.00 45 1011.0
20260508192856 20 206 1.6 6.4 0.00 0.00 0.00 46 1011.0
20260508192356 20 182 3.2 6.4 0.00 0.00 0.00 46 1011.0
20260508191859 20 126 0.0 3.2 0.00 0.00 0.00 47 1011.0
20260508191356 20 155 1.6 3.2 0.00 0.00 0.00 45 1011.0
20260508190856 20 172 3.2 6.4 0.00 0.00 0.00 44 1011.0
20260508190356 21 158 1.6 6.4 0.00 0.00 0.00 44 1011.0
20260508185856 21 150 1.6 3.2 0.00 0.00 0.00 45 1011.0
20260508185356 21 190 1.6 4.8 0.00 0.00 0.00 44 1011.0
20260508184856 22 155 3.2 4.8 0.00 0.00 0.00 45 1011.0
20260508184357 22 169 4.8 6.4 0.00 0.00 0.00 41 1012.0
20260508183857 22 154 1.6 4.8 0.00 0.00 0.00 46 1012.0
20260508183356 22 179 3.2 6.4 0.00 0.00 0.00 45 1012.0
20260508182858 21 145 6.4 9.7 0.00 0.00 0.00 44 1012.0
20260508182356 21 154 3.2 8.0 0.00 0.00 0.00 44 1012.0
20260508181856 20 166 4.8 8.0 0.00 0.00 0.00 44 1012.0
20260508181356 20 129 1.6 4.8 0.00 0.00 0.00 48 1012.0
20260508180856 20 193 3.2 6.4 0.00 0.00 0.00 45 1012.0
20260508180356 20 200 1.6 4.8 0.00 0.00 0.00 46 1012.0
20260508175858 21 164 3.2 4.8 0.00 0.00 0.00 47 1012.0
20260508175356 21 259 3.2 9.7 0.00 0.00 0.00 45 1012.0
20260508174857 21 163 1.6 6.4 0.00 0.00 0.00 46 1012.0
20260508174357 21 278 6.4 11.3 0.00 0.00 0.00 47 1012.0
20260508173856 21 129 3.2 6.4 0.00 0.00 0.00 49 1013.0
20260508173358 20 192 3.2 4.8 0.00 0.00 0.00 50 1013.0
20260508172856 20 184 1.6 4.8 0.00 0.00 0.00 50 1013.0
20260508172356 20 230 1.6 4.8 0.00 0.00 0.00 49 1013.0
20260508171857 21 214 1.6 3.2 0.00 0.00 0.00 47 1013.0
20260508171356 21 164 3.2 8.0 0.00 0.00 0.00 47 1013.0
20260508170856 21 153 3.2 4.8 0.00 0.00 0.00 46 1013.0
20260508170356 20 153 3.2 6.4 0.00 0.00 0.00 48 1013.0
20260508165856 20 258 4.8 9.7 0.00 0.00 0.00 49 1013.0
20260508165357 20 140 1.6 3.2 0.00 0.00 0.00 49 1013.0
20260508164856 20 150 1.6 3.2 0.00 0.00 0.00 48 1013.0
20260508164356 20 229 3.2 6.4 0.00 0.00 0.00 47 1014.0
20260508163857 20 265 3.2 9.7 0.00 0.00 0.00 50 1014.0
20260508163357 20 219 3.2 6.4 0.00 0.00 0.00 50 1014.0
20260508162857 20 156 3.2 4.8 0.00 0.00 0.00 47 1014.0
20260508162357 20 203 3.2 6.4 0.00 0.00 0.00 48 1014.0
20260508161858 20 233 4.8 12.9 0.00 0.00 0.00 50 1014.0
20260508161356 21 274 3.2 8.0 0.00 0.00 0.00 48 1014.0
20260508160857 20 163 3.2 6.4 0.00 0.00 0.00 47 1014.0
20260508160357 20 204 3.2 4.8 0.00 0.00 0.00 48 1014.0
20260508155857 20 238 1.6 4.8 0.00 0.00 0.00 50 1014.0
20260508155357 20 157 3.2 6.4 0.00 0.00 0.00 49 1014.0
20260508154857 20 270 4.8 8.0 0.00 0.00 0.00 50 1014.0
20260508154356 20 149 3.2 6.4 0.00 0.00 0.00 50 1014.0
20260508153857 20 169 3.2 4.8 0.00 0.00 0.00 50 1014.0
20260508153357 20 169 1.6 4.8 0.00 0.00 0.00 48 1014.0
20260508152857 19 165 1.6 4.8 0.00 0.00 0.00 51 1014.0
20260508152356 19 179 3.2 6.4 0.00 0.00 0.00 49 1014.0
20260508151857 19 186 3.2 6.4 0.00 0.00 0.00 49 1014.0
20260508151356 19 268 3.2 8.0 0.00 0.00 0.00 49 1015.0
20260508150856 19 160 1.6 3.2 0.00 0.00 0.00 52 1015.0
20260508150356 19 177 3.2 6.4 0.00 0.00 0.00 50 1015.0
20260508145858 19 211 0.0 1.6 0.00 0.00 0.00 50 1015.0
20260508145357 18 135 1.6 4.8 0.00 0.00 0.00 52 1015.0
20260508144856 18 149 3.2 6.4 0.00 0.00 0.00 52 1015.0
20260508144357 18 151 3.2 4.8 0.00 0.00 0.00 53 1015.0
20260508143857 18 210 3.2 6.4 0.00 0.00 0.00 50 1015.0
20260508143357 18 169 3.2 8.0 0.00 0.00 0.00 50 1015.0
20260508142857 18 161 3.2 6.4 0.00 0.00 0.00 51 1015.0
20260508142356 18 234 1.6 3.2 0.00 0.00 0.00 51 1015.0
20260508141856 17 173 1.6 4.8 0.00 0.00 0.00 51 1015.0
20260508141357 17 166 3.2 8.0 0.00 0.00 0.00 51 1015.0
20260508140856 17 194 1.6 4.8 0.00 0.00 0.00 52 1015.0
20260508140356 17 145 1.6 6.4 0.00 0.00 0.00 54 1015.0
20260508135857 17 168 0.0 3.2 0.00 0.00 0.00 53 1015.0
20260508135356 17 168 1.6 4.8 0.00 0.00 0.00 55 1015.0
20260508134856 16 115 0.0 3.2 0.00 0.00 0.00 54 1015.0
20260508134356 16 160 1.6 6.4 0.00 0.00 0.00 57 1015.0
20260508133857 16 195 1.6 3.2 0.00 0.00 0.00 58 1015.0
20260508133356 15 288 0.0 3.2 0.00 0.00 0.00 58 1015.0
20260508132856 14 176 1.6 3.2 0.00 0.00 0.00 60 1015.0
20260508132357 13 199 0.0 3.2 0.00 0.00 0.00 63 1015.0
20260508131858 13 183 3.2 8.0 0.00 0.00 0.00 61 1015.0
20260508131356 12 203 1.6 3.2 0.00 0.00 0.00 65 1015.0
20260508130857 11 216 0.0 1.6 0.00 0.00 0.00 68 1015.0
20260508130357 11 175 0.0 3.2 0.00 0.00 0.00 69 1015.0
20260508125856 11 214 1.6 3.2 0.00 0.00 0.00 72 1015.0
20260508125356 10 250 0.0 3.2 0.00 0.00 0.00 71 1015.0
20260508124857 10 200 0.0 3.2 0.00 0.00 0.00 72 1015.0
20260508124356 10 185 0.0 3.2 0.00 0.00 0.00 71 1015.0
20260508123857 10 42 0.0 1.6 0.00 0.00 0.00 72 1015.0
20260508123356 10 198 0.0 1.6 0.00 0.00 0.00 73 1015.0
20260508122856 10 191 1.6 3.2 0.00 0.00 0.00 71 1015.0
20260508122310 9 196 1.6 4.8 0.00 0.00 0.00 71 1015.0
20260508121757 9 170 0.0 3.2 0.00 0.00 0.00 71 1015.0
20260508121256 9 171 0.0 3.2 0.00 0.00 0.00 73 1015.0
20260508120756 8 289 0.0 1.6 0.00 0.00 0.00 74 1015.0
20260508120256 8 176 0.0 1.6 0.00 0.00 0.00 75 1015.0
20260508115757 8 207 0.0 1.6 0.00 0.00 0.00 75 1015.0
20260508115257 8 213 0.0 1.6 0.00 0.00 0.00 76 1015.0
20260508114757 8 80 0.0 1.6 0.00 0.00 0.00 76 1015.0
20260508114256 8 170 0.0 3.2 0.00 0.00 0.00 77 1015.0
20260508113757 8 189 0.0 3.2 0.00 0.00 0.00 76 1015.0
20260508113257 7 144 0.0 1.6 0.00 0.00 0.00 77 1015.0
20260508112757 7 216 0.0 1.6 0.00 0.00 0.00 77 1014.0
20260508112257 7 202 0.0 1.6 0.00 0.00 0.00 78 1014.0
20260508111757 7 0 0.0 0.0 0.00 0.00 0.00 78 1014.0
20260508111258 7 194 0.0 1.6 0.00 0.00 0.00 81 1014.0
20260508110756 7 156 0.0 3.2 0.00 0.00 0.00 79 1014.0
20260508110257 7 270 0.0 1.6 0.00 0.00 0.00 80 1014.0
20260508105756 7 0 0.0 0.0 0.00 0.00 0.00 80 1014.0
20260508105256 7 216 0.0 1.6 0.00 0.00 0.00 79 1014.0
20260508104758 7 0 0.0 0.0 0.00 0.00 0.00 81 1014.0
20260508104257 7 208 0.0 1.6 0.00 0.00 0.00 81 1014.0
20260508103756 7 222 0.0 1.6 0.00 0.00 0.00 81 1014.0
20260508103256 7 0 0.0 0.0 0.00 0.00 0.00 82 1014.0
20260508102756 7 0 0.0 0.0 0.00 0.00 0.00 81 1014.0
20260508102257 7 0 0.0 0.0 0.00 0.00 0.00 82 1014.0
20260508101756 7 0 0.0 0.0 0.00 0.00 0.00 82 1014.0
20260508101256 7 0 0.0 0.0 0.00 0.00 0.00 83 1014.0
20260508100757 7 298 0.0 3.2 0.00 0.00 0.00 82 1014.0
20260508100256 7 0 0.0 0.0 0.00 0.00 0.00 83 1014.0
20260508095756 7 211 0.0 0.0 0.00 0.00 0.00 83 1014.0
20260508095307 7 11 0.0 1.6 0.00 0.00 0.00 82 1014.0
20260508094756 7 124 0.0 1.6 0.00 0.00 0.00 81 1014.0
20260508094257 7 0 0.0 0.0 0.00 0.00 0.00 81 1014.0
20260508093756 7 217 0.0 0.0 0.00 0.00 0.00 82 1014.0
20260508093257 7 283 0.0 0.0 0.00 0.00 0.00 83 1014.0
20260508092758 7 230 0.0 1.6 0.00 0.00 0.00 85 1014.0
20260508092257 6 253 0.0 1.6 0.00 0.00 0.00 87 1014.0
20260508091758 6 266 0.0 1.6 0.00 0.00 0.00 88 1014.0
20260508091256 6 0 0.0 0.0 0.00 0.00 0.00 90 1014.0
20260508090756 6 73 0.0 0.0 0.00 0.00 0.00 90 1014.0
20260508090256 6 0 0.0 0.0 0.00 0.00 0.00 90 1014.0
20260508085756 6 0 0.0 0.0 0.00 0.00 0.00 92 1014.0
20260508085256 6 0 0.0 0.0 0.00 0.00 0.00 91 1014.0
20260508084756 5 259 0.0 0.0 0.00 0.00 0.00 91 1014.0
20260508084257 5 0 0.0 0.0 0.00 0.00 0.00 90 1014.0
20260508083756 5 0 0.0 0.0 0.00 0.00 0.00 91 1014.0
20260508083256 5 68 0.0 1.6 0.00 0.00 0.00 92 1014.0
20260508082757 6 309 0.0 0.0 0.00 0.00 0.00 91 1014.0
20260508082257 6 0 0.0 0.0 0.00 0.00 0.00 91 1014.0
20260508081756 6 0 0.0 0.0 0.00 0.00 0.00 90 1014.0
20260508081256 6 254 0.0 1.6 0.00 0.00 0.00 89 1014.0
20260508080756 6 279 0.0 1.6 0.00 0.00 0.00 90 1014.0
20260508080258 6 0 0.0 0.0 0.00 0.00 0.00 90 1014.0
20260508075756 6 62 0.0 1.6 0.00 0.00 0.00 89 1014.0
20260508075256 6 289 0.0 1.6 0.00 0.00 0.00 89 1014.0
20260508074756 6 269 1.6 3.2 0.00 0.00 0.00 90 1014.0
20260508074257 6 293 0.0 0.0 0.00 0.00 0.00 91 1014.0
20260508073757 5 291 0.0 1.6 0.00 0.00 0.00 90 1014.0
20260508073257 5 69 0.0 0.0 0.00 0.00 0.00 91 1014.0
20260508072756 5 32 0.0 0.0 0.00 0.00 0.00 91 1014.0
20260508072256 5 43 0.0 1.6 0.00 0.00 0.00 91 1014.0
20260508071757 5 91 0.0 1.6 0.00 0.00 0.00 91 1014.0
20260508071257 6 85 0.0 1.6 0.00 0.00 0.00 89 1014.0
20260508070756 6 93 0.0 1.6 0.00 0.00 0.00 90 1014.0
20260508070256 6 95 0.0 1.6 0.00 0.00 0.00 91 1014.0
20260508065757 6 233 0.0 1.6 0.00 0.00 0.00 90 1014.0
20260508065256 6 37 0.0 0.0 0.00 0.00 0.00 89 1014.0